カタログに戻る

LEMUR 2 NEUROSPICY

運用中気象SSO
NORAD 63355·PAYLOAD·🇺🇸 United States

打ち上げ Mar 26, 2025 から Rocket Lab Launch Complex 1

Loading…

次のパス (今後24時間)

TLE

最新Source: Space-Track

元期: Sep 14, 2026, 08:59 UTC

1 63355U 25061E   26257.37455609  .00002966  00000-0  16315-3 0  9999
2 63355  97.5730 232.5794 0015393 316.4951  43.5066 15.14764253 81110

AllMySatでLEMUR 2 NEUROSPICYをリアルタイム追跡

Download on the App Store